RH
76 82 94 95 89 74 68 66 67 65 60 56 56 65 74 76 78 76 76 76 77 79 93 88 85 94 95 93 88 84 80 83 74
77 74 86 95 94 86 76 72 74 72 68 63 58 55 64 69 74 77 74 74 75 91 92 93 94 95 95 91 84 82 82 86 83
86 85 83 86 89 92 87 83 80 81 77 70 61 56 56 62 68 72 72 76 72 89 92 93 96 93 96 88 88 86 80 80 88
93 95 95 90 90 91 91 90 88 85 83 79 76 67 58 58 60 62 69 73 79 78 95 94 94 94 94 92 90 89 89 86 90
83 88 90 83 87 93 93 95 94 92 91 89 85 83 79 66 56 57 60 69 76 79 94 95 94 90 89 90 93 92 93 94 96
43 42 53 77 80 76 82 89 95 95 99 96 94 92 88 85 78 65 53 58 65 73 80 94 94 92 93 91 92 94 95 95 96
30 31 31 32 48 61 69 74 80 90 94 99 100 100 96 97 93 88 80 68 55 63 78 84 94 97 94 95 95 96 94 93 96
30 29 29 30 31 32 33 35 43 59 70 75 86 92 99 96 95 96 90 87 82 77 80 78 88 93 92 96 96 97 94 96 95
32 34 34 34 35 36 37 36 35 35 37 39 44 49 81 92 92 85 91 94 96 88 95 82 76 86 93 97 95 90 91 94 93
49 47 47 46 45 44 43 43 42 41 40 39 41 42 47 54 71 82 80 80 90 93 92 97 89 90 96 97 94 89 85 87 92
60 60 58 56 56 55 53 52 50 50 50 47 47 46 46 46 47 48 45 48 56 68 80 90 97 91 89 95 95 92 88 84 86
59 62 64 65 64 63 60 59 59 59 58 57 54 53 50 48 45 42 41 38 36 36 41 57 76 93 94 88 95 94 92 88 84
60 64 66 70 68 65 64 64 63 64 66 66 61 61 58 54 51 49 47 45 44 42 42 40 47 70 97 96 89 92 91 92 90
73 72 73 73 73 75 75 75 78 77 77 76 72 67 64 60 57 53 52 51 50 49 46 41 40 53 68 87 92 91 92 92 91
78 76 74 75 74 74 77 76 75 73 75 69 70 60 66 64 61 62 59 64 59 68 66 63 52 50 64 69 93 98 89 100 95
82 82 79 77 77 80 82 80 80 77 82 82 74 68 62 67 55 53 58 58 60 55 62 55 62 76 64 68 79 77 83 90 90
84 83 81 81 80 78 77 82 89 88 84 90 97 94 76 65 51 63 56 59 56 63 63 73 76 71 79 79 77 86 90 96 87
83 84 86 84 84 82 81 80 86 96 87 88 92 94 97 87 71 61 61 67 66 60 59 63 68 76 79 92 81 80 80 88 95
88 91 90 89 86 83 81 81 84 87 93 90 87 90 91 95 95 72 70 73 76 66 62 60 61 60 66 75 82 83 89 98 98
92 90 88 85 84 81 79 79 81 80 86 96 99 98 96 94 99 95 86 78 79 67 61 64 60 54 53 83 82 82 90 100 98
Wind_Speed
7 7 4 5 5 5 5 5 5 5 4 3 3 5 6 6 4 3 4 4 4 2 5 4 3 4 5 5 4 4 4 4 4
8 8 5 5 6 7 7 8 8 8 7 7 6 6 8 9 8 7 7 8 6 6 5 6 6 5 6 5 5 4 4 4 5
9 9 7 8 8 9 10 10 10 10 10 9 9 8 8 10 11 11 10 9 11 10 11 8 8 8 8 7 7 6 4 4 4
9 10 10 10 11 12 13 13 13 13 13 12 12 11 11 12 13 14 13 11 12 13 13 11 10 10 10 9 9 9 8 9 7
8 9 9 12 13 14 15 15 16 16 15 15 15 14 14 15 15 15 16 15 14 16 15 16 14 13 13 13 12 11 11 10 9
9 9 9 10 13 14 14 14 15 18 18 17 16 16 17 17 18 18 18 18 19 18 19 19 18 16 16 16 16 15 14 14 13
11 11 11 11 12 13 15 17 18 15 13 16 18 20 20 21 21 21 20 21 22 22 22 21 21 20 20 19 19 18 17 17 16
14 14 14 14 14 14 15 15 14 14 13 14 15 16 16 18 20 22 23 22 23 22 23 25 23 24 23 22 21 21 20 20 18
15 14 14 14 14 14 14 15 15 15 15 15 15 15 15 17 19 19 18 19 22 23 23 25 27 26 26 25 24 24 24 22 21
13 13 13 12 11 13 13 14 15 16 16 16 16 16 16 17 17 19 18 18 19 20 23 24 27 26 27 28 27 26 27 25 24
13 13 13 13 13 14 15 16 17 17 17 18 18 18 18 18 18 18 20 20 18 19 21 24 24 28 29 30 30 29 28 28 28
15 15 14 14 14 15 16 16 15 17 18 19 20 20 19 20 20 21 21 23 24 24 22 22 25 30 28 31 32 31 31 30 30
13 12 12 12 13 12 12 13 14 15 16 18 19 19 19 18 18 18 20 21 23 24 24 23 23 24 30 30 33 34 33 33 33
12 12 11 11 9 9 10 10 12 15 15 17 17 16 17 15 13 15 17 18 20 23 26 27 24 23 25 27 33 37 35 35 33
12 12 10 8 8 9 9 11 12 12 15 18 16 19 13 12 12 12 14 15 14 16 17 19 24 24 23 28 27 36 36 32 31
9 8 6 6 7 8 9 12 15 14 17 10 18 7 8 3 14 17 14 16 15 19 18 16 17 18 21 24 27 26 28 42 32
8 7 6 6 7 8 9 12 14 11 14 7 6 4 4 9 24 13 17 17 20 16 17 15 16 18 18 22 23 24 27 26 33
7 6 6 7 7 8 9 10 12 9 13 13 2 3 2 11 6 14 19 18 20 17 19 18 17 16 15 17 19 18 17 22 23
7 6 6 6 7 8 8 10 11 10 10 10 2 6 7 2 4 18 18 22 20 19 18 19 16 14 17 17 12 13 14 14 20
8 7 7 7 7 7 7 10 10 9 9 8 6 5 6 3 4 3 12 21 19 16 18 19 16 12 17 20 11 12 8 6 10
Wind_Direction
360 344 278 281 288 308 317 314 314 317 317 312 274 244 249 268 290 292 255 259 271 253 207 220 210 179 168 165 144 140 139 143 123
353 354 330 287 285 294 303 302 301 303 303 301 294 274 260 267 271 261 283 260 251 249 253 234 232 220 200 188 183 179 174 175 175
333 334 326 304 289 287 295 295 292 291 295 295 292 283 274 267 263 262 275 271 246 249 242 235 237 238 219 216 214 207 212 219 206
322 320 321 314 302 294 293 293 290 285 284 288 288 287 282 278 273 264 266 274 253 254 254 233 231 230 234 238 230 230 230 221 229
313 312 312 309 305 307 301 294 290 287 287 284 285 287 285 281 278 275 268 264 262 256 260 242 232 229 230 233 236 237 237 236 233
313 315 311 290 297 297 304 310 303 294 284 280 282 284 282 283 281 279 274 270 262 260 259 256 239 235 235 234 232 233 238 241 243
315 313 310 305 298 294 288 288 300 303 301 287 283 282 284 283 281 280 277 274 268 260 258 261 251 243 241 243 237 235 234 238 240
307 307 306 305 301 298 296 298 303 307 304 300 291 287 291 289 289 284 280 277 274 264 260 257 255 250 247 245 244 242 238 238 238
313 313 312 308 305 307 307 305 304 301 302 301 298 297 292 293 296 296 294 287 279 271 262 261 257 255 251 248 246 244 245 242 240
322 320 317 318 316 314 313 313 309 304 302 298 298 296 293 288 289 294 297 295 290 279 270 268 263 259 254 249 248 247 247 247 242
323 319 317 315 315 315 312 311 307 304 304 300 298 297 294 293 291 292 293 294 293 291 281 273 267 259 257 252 249 248 248 248 248
315 314 314 315 317 317 312 309 306 304 303 300 297 296 295 292 290 289 289 291 290 288 284 282 275 264 258 254 252 251 249 249 250
317 318 319 322 329 331 329 328 324 325 322 317 309 301 294 291 290 288 288 289 291 292 290 285 281 280 264 258 252 252 252 250 250
315 314 316 321 335 348 353 351 347 343 342 337 328 316 297 293 297 300 297 294 292 293 292 288 286 278 276 271 256 251 251 249 247
311 304 301 314 331 344 352 348 351 350 346 335 323 321 308 293 308 322 317 323 334 328 324 305 291 284 273 265 265 251 254 269 255
337 336 327 325 334 353 360 351 351 355 357 343 333 332 335 360 353 338 347 332 332 328 331 312 312 301 278 269 262 259 264 257 266
351 349 349 345 341 344 347 348 346 340 354 336 315 343 353 334 335 346 344 337 330 342 337 341 324 307 298 270 267 256 248 247 249
340 341 346 345 341 341 336 344 346 331 343 354 309 348 334 327 348 343 340 342 341 325 341 343 346 337 309 302 271 266 265 257 248
334 338 340 342 340 344 346 344 342 337 331 353 348 299 271 295 319 331 339 334 337 328 334 339 347 348 343 323 287 275 272 271 241
329 325 327 330 336 339 345 333 333 331 322 327 325 319 328 247 247 305 322 330 340 342 337 338 345 346 347 342 316 274 275 240 230